Printer-friendly version

IAU Minor Planet Center

Minor Planet Center

MPEC 2006-L12 : 2006 KZ112

The following Minor Planet Electronic Circular may be linked-to from your own Web pages, but must not otherwise be redistributed electronically.


Read MPEC 2006-L11 Read MPEC 2006-L13


M.P.E.C. 2006-L12                                Issued 2006 June 2, 12:05 UT

     The Minor Planet Electronic Circulars contain information on unusual
         minor planets and routine data on comets.  They are published
   on behalf of Commission 20 of the International Astronomical Union by the
          Minor Planet Center, Smithsonian Astrophysical Observatory,
                          Cambridge, MA 02138, U.S.A.

                  Supported in part by the Brinson Foundation
                  Supported in part by the TABASGO Foundation
             Prepared using the Tamkin Foundation Computer Network

                              MPC@CFA.HARVARD.EDU
          URL http://cfa-www.harvard.edu/iau/mpc.html  ISSN 1523-6714

                                  2006 KZ112

Observations:
     K06KB2Z* C2006 05 31.40648 22 58 19.27 +28 27 17.6          19.6 V EL012703
     K06KB2Z  C2006 05 31.41674 22 58 18.80 +28 27 19.6          19.8 V EL012703
     K06KB2Z  C2006 05 31.42696 22 58 18.37 +28 27 24.1          19.8 V EL012703
     K06KB2Z  C2006 05 31.43716 22 58 17.94 +28 27 27.8          19.2 V EL012703
     K06KB2Z  C2006 05 31.45777 22 58 16.83 +28 27 33.9          19.1 V EL012703
     K06KB2Z  C2006 05 31.46155 22 58 16.67 +28 27 34.8          19.2 V EL012703
     K06KB2Z  C2006 05 31.46515 22 58 16.43 +28 27 35.8          19.4 V EL012703
     K06KB2Z  C2006 06 01.35549 22 57 33.91 +28 31 37.8          20.2 R EL012651
     K06KB2Z  C2006 06 01.36425 22 57 33.48 +28 31 40.8          20.3 R EL012651
     K06KB2Z  C2006 06 01.37300 22 57 33.08 +28 31 42.7          19.8 R EL012651
     K06KB2Z  C2006 06 01.39468 22 57 32.00 +28 31 48.3          19.5 V EL012G96
     K06KB2Z  C2006 06 01.40528 22 57 31.42 +28 31 51.3          19.4 V EL012G96
     K06KB2Z  C2006 06 01.41578 22 57 30.88 +28 31 54.3          19.4 V EL012G96
     K06KB2Z  C2006 06 01.42638 22 57 30.38 +28 31 57.3          19.4 V EL012G96
     K06KB2Z 5C2006 06 01.45521 22 57 28.91 +28 32 05.0          19.2 R EL012673
     K06KB2Z 5C2006 06 01.45891 22 57 28.73 +28 32 06.0                 EL012673
     K06KB2Z 5C2006 06 01.46412 22 57 28.48 +28 32 07.5                 EL012673
     K06KB2Z 5C2006 06 01.47025 22 57 28.15 +28 32 09.2                 EL012673
     K06KB2Z  C2006 06 02.42549 22 56 40.41 +28 36 19.0          19.3 V EL012G96
     K06KB2Z  C2006 06 02.42809 22 56 40.27 +28 36 20.0          19.3 V EL012G96
     K06KB2Z  C2006 06 02.43069 22 56 40.16 +28 36 20.7          19.0 V EL012G96
     K06KB2Z  C2006 06 02.43330 22 56 39.98 +28 36 21.3          19.1 V EL012G96

Observer details:
651 Grasslands Observatory, Tucson.  Observer J. E. McGaha.  0.62-m f/5.1
    Newtonian reflector + CCD.
673 Table Mountain Observatory, Wrightwood.  Observer J. Young.  0.61-m f/16
    Cassegrain + CCD.
703 Catalina Sky Survey.  Observer A. R. Gibbs.  Measurers E. C. Beshore,
    E. J. Christensen, G. J. Garradd, A. R. Gibbs, A. D. Grauer, R. E. Hill,
    R. A. Kowalski, S. M. Larson, R. H. McNaught.  0.68-m Schmidt + CCD.
G96 Mt. Lemmon Survey.  Observers A. D. Grauer, R. Hill.  Measurers
    E. C. Beshore, E. J. Christensen, G. J. Garradd, A. R. Gibbs, A. D. Grauer,
    R. E. Hill, R. A. Kowalski, S. M. Larson, R. H. McNaught.  1.5-m reflector
    + CCD.

Orbital elements:
2006 KZ112                                               Earth MOID = 0.5198 AU
Epoch 2006 May 25.0 TT = JDT 2453880.5                  MPC
M  14.56868              (2000.0)            P               Q
n   0.27318772     Peri.  357.68911     -0.96152446     -0.23166515
a   2.3523138      Node   165.94986     +0.26079884     -0.93866853
e   0.8787347      Incl.   37.45995     +0.08634052     +0.25540682
P   3.61           H   16.8           G   0.15
From 22 observations 2006 May 31-June 2.  E-assumed.

Ephemeris:
2006 KZ112               a,e,i = 2.35, 0.88, 37                  q = 0.2853
Date    TT    R. A. (2000) Decl.     Delta      r     Elong.  Phase     V
2006 05 25    23 02.74   +27 54.7    1.140    1.214    68.4    50.8    19.4
2006 06 04    22 55.29   +28 42.9    1.159    1.368    77.8    46.4    19.6
2006 06 14    22 44.37   +29 11.6    1.162    1.513    87.7    42.1    19.7
2006 06 24    22 29.34   +29 10.3    1.158    1.649    98.4    37.6    19.7
2006 07 04    22 10.19   +28 25.5    1.154    1.778   109.8    32.6    19.7
2006 07 14    21 47.89   +26 45.9    1.160    1.900   121.4    27.2    19.7
2006 07 24    21 24.31   +24 07.6    1.185    2.016   132.6    21.8    19.7
2006 08 03    21 01.74   +20 39.3    1.236    2.127   141.6    17.2    19.8
2006 08 13    20 42.23   +16 41.6    1.317    2.233   146.4    14.5    20.0
2006 08 23    20 26.92   +12 38.9    1.431    2.334   145.3    14.3    20.2
2006 09 02    20 16.13   +08 50.9    1.574    2.432   139.6    15.6    20.6
2006 09 12    20 09.56   +05 29.3    1.742    2.525   131.5    17.4    20.9
2006 09 22    20 06.64   +02 38.1    1.932    2.615   122.7    18.8    21.3
2006 10 02    20 06.77   +00 17.0    2.137    2.701   113.8    19.8    21.6
2006 10 12    20 09.37   -01 36.4    2.353    2.784   105.0    20.3    21.9

Timothy B. Spahr             (C) Copyright 2006 MPC           M.P.E.C. 2006-L12

Read MPEC 2006-L11 Read MPEC 2006-L13


Our Web policy. Index to the CBAT/MPC/ICQ pages.


Valid HTML 4.01!